Regional Weather Roundup
Issued by NWS Upton, NY

Current Version | Previous Version | Graphics & Text | Print | Product List | Glossary Off
Versions: 1 2 3 4 5 6 7 8 9 10 11 12 13 14 15 16 17 18 19 20 21 22 23 24 25 26 27

000
ASUS41 KOKX 241504
RWROKX

REGIONAL WEATHER ROUNDUP
NATIONAL WEATHER SERVICE NEW YORK NY
1100 AM EDT TUE MAY 24 2016

NOTE: "FAIR" INDICATES FEW OR NO CLOUDS BELOW 12,000 FEET WITH NO
SIGNIFICANT WEATHER AND/OR OBSTRUCTIONS TO VISIBILITY.

NYZ071-072-176-178-NJZ106-104-241600-
NEW YORK CITY METRO AREA


CITY           SKY/WX    TMP DP  RH WIND       PRES   REMARKS
CENTRAL PARK   LGT RAIN  63  58  83 CALM      29.95S
LAGUARDIA APRT CLOUDY    66  61  84 VRB3      29.91F
KENNEDY INTL   CLOUDY    66  59  78 VRB3      29.92F
NEWARK/LIBERTY CLOUDY    65  59  81 NW3       29.92S
BRNX BOT. GARD   N/A     64  55  72 N6        29.93R
TETERBORO      LGT RAIN  64  55  72 NE3       29.91S
$$

NYZ177-179-078>081-241600-
LONG ISLAND NEW YORK

CITY           SKY/WX    TMP DP  RH WIND       PRES   REMARKS
FARMINGDALE    CLOUDY    63  57  81 NW6       29.91S
ISLIP          CLOUDY    61  57  87 NW7       29.90R
SHIRLEY        LGT RAIN  60  57  89 W7        29.90S
RIVERHEAD        N/A     59  57  94 NW1       29.89R
WESTHAMPTON    CLOUDY    55  55 100 N6        29.90S FOG
EAST HAMPTON   CLOUDY    57  56  95 N3        29.88R FOG
MONTAUK POINT    N/A     55  55 100 VRB3      29.89R
$$

NYZ052-065-067-241600-
HUDSON VALLEY

CITY           SKY/WX    TMP DP  RH WIND       PRES   REMARKS
WHITE PLAINS   MOSUNNY   63  56  78 CALM      29.91R
NEWBURGH       NOT AVBL
MONTGOMERY     LGT RAIN  64  57  78 CALM      29.92F
POUGHKEEPSIE   CLOUDY    65  58  78 NW5       29.91F
ALBANY         LGT RAIN  63  54  72 NW3       29.94F
$$

NJZ001-105-106-008-010-013-015-019>022-104-241600-
NEW JERSEY

CITY           SKY/WX    TMP DP  RH WIND       PRES   REMARKS
NEWARK/LIBERTY CLOUDY    65  59  81 NW3       29.92S
TETERBORO      LGT RAIN  64  55  72 NE3       29.91S
CALDWELL       CLOUDY    64  58  80 E5        29.92F
MORRISTOWN     CLOUDY    63  59  88 CALM      29.92F
SOMERVILLE     CLOUDY    65  60  84 CALM      29.92S
SUSSEX         CLOUDY    67  58  72 CALM      29.93S
ANDOVER          N/A     66  57  72 VRB5      29.93F
TRENTON        CLOUDY    67  55  65 VRB3      29.95R
MILLVILLE      SUNNY     70  58  65 NW6       29.97R
ATLANTIC CITY  CLOUDY    69  54  58 N8        29.95R
WRIGHTSTOWN    NOT AVBL
TOMS RIVER     CLOUDY    64  54  68 N5        29.96R
BELMAR         PTSUNNY   64  59  83 SW8       29.94F
$$

PAZ047>061-062-071-241600-
EASTERN PENNSYLVANIA

CITY           SKY/WX    TMP DP  RH WIND       PRES   REMARKS
PHILADELPHIA   PTSUNNY   70  55  59 S7        29.96R
ALLENTOWN      MOSUNNY   73  50  44 S5        29.95S
SCRANTON       SUNNY     72  47  40 W8        29.96S
$$

CTZ002-004>006-009-010-012-RIZ004-006-007-MAZ004-011-015-241600-
SOUTHERN NEW ENGLAND
 IN CT

CITY           SKY/WX    TMP DP  RH WIND       PRES   REMARKS
BRADLEY INTL   CLOUDY    61  56  83 N10       29.89S
HARTFORD       CLOUDY    63  57  81 N9        29.89S
DANBURY        PTSUNNY   64  55  72 N8        29.92R
WTRBRY/OXFORD  CLOUDY    61  54  77 NE9G17    29.92R
BRIDGEPORT     CLOUDY    64  56  75 N10       29.90R
MERIDEN        CLOUDY    63  56  78 N6        29.89R
NEW HAVEN      CLOUDY    61  57  87 NW5       29.89R
CHESTER          N/A     61  55  82 N9        29.88S
GROTON         LGT RAIN  59  56  89 NE8       29.86S
WILLIMANTIC    CLOUDY    62  54  74 NE10      29.88S

 IN RI

CITY           SKY/WX    TMP DP  RH WIND       PRES   REMARKS
PROVIDENCE     CLOUDY    57  52  83 NE16      29.89R
BLOCK ISLAND   LGT RAIN  55  54  96 N16       29.87R FOG
WESTERLY       LGT RAIN  59  53  80 N9        29.87S

 IN MA

CITY           SKY/WX    TMP DP  RH WIND       PRES   REMARKS
BOSTON         CLOUDY    54  52  93 NE12      29.92F FOG
WORCESTER      NOT AVBL
WESTFIELD      CLOUDY    60  55  83 N12       29.90S
PROVINCETOWN   LGT RAIN  54  53  97 NE10      29.90R VSB 1/2
NANTUCKET      CLOUDY    56  53  90 S18       29.89R FOG
$$

ANZ330-335-338-340-345-350-353-355-241600-
COASTAL MARINE OBSERVATIONS


STATION/POSITION TIME  SKY/WX   TEMP    WIND        PRES    VSBY  WAVE
                                AIR SEA DIR/SP/G                  HT/PER
                 (UTC)          (F)     (DEG/KT/KT) (MB)    (MI)  (FT/S)
NY HARB ENTRANCE 1350            58 57  280/  8/  8 1013.0          3/ 9
20S FIRE ISLAND  1350            56 54  290/  8/ 10 1012.3          4/ 8
GREAT SOUTH BAY  1400            59 63  340/  8/ 10   N/A
23 SSW MONTAUK P 1450            54 54  310/  4/  6 1011.4          5/ 8
15 E BARNEGAT LI 1422               54                N/A           3/ 8
HUDSON CANYON    1350            54 53              1012.3          4/10
KINGS POINT      1400            58 57              1012.7
EXECUTION ROCKS  NOT AVBL
CENTRAL LI SOUND NOT AVBL
EASTERN LI SOUND 1400            56 53   30/  6/  8   N/A
ROBBINS REEF     1400            62     280/  8/  8 1012.4
$$


>>>>>>>>>>>>>>>>>>>>>>>>>>>> KEY <<<<<<<<<<<<<<<<<<<<<<<<<<<
>                                                          <
>     SKY/WX - SKY CONDITION/PRESENT WEATHER               <
>     TMP    - TEMPERATURE IN FAHRENHEIT                   <
>     DP     - DEWPOINT IN FAHRENHEIT                      <
>     RH     - RELATIVE HUMIDITY IN PERCENT                <
>     WIND   - DIRECTION AND SPEED IN MPH                  <
>     PRES   - MEAN SEA LEVEL PRESSURE IN INCHES OF HG     <
>     WCI    - WIND CHILL INDEX                            <
>     VSB    - VISIBILITY IN MILES                         <
>     HX     - HEAT INDEX                                  <
>     TC     - TEMPERATURE IN CELSIUS                      <
>     VRB    - VARIABLE WIND DIRECTION                     <
>                                                          <
>>>>>>>>>>>>>>>>>>>>>>>>>>>> KEY <<<<<<<<<<<<<<<<<<<<<<<<<<<






USA.gov is the U.S. government's official web portal to all federal, state and local government web resources and services.